Location: Easthampton
(42.2676°N, 72.6690°W)
Time: 15:17:09
(UTC+00:00)

RS-44 - Pass Details

Date: 20 April 2024
Orbit: 1174 x 1511 km, 82.5° (Epoch: 25 May)

Event Time Altitude Azimuth Distance (km) Brightness Sun altitude
Rises 00:35:21 0° 181° (S) 4,639 ? -10.8°
Reaches altitude 10° 00:38:16 10° 180° (S) 3,658 ? -11.3°
Maximum altitude 00:47:09 80° 95° (E) 1,502 ? -12.7°
Drops below altitude 10° 00:55:41 10° 10° (N) 3,527 ? -14.1°
Sets 00:58:27 0° 10° (N) 4,466 ? -14.5°
